Tracking 29528 objects as of 13-Sep-2024
HD Live streaming from Space Station
objects crossing your sky now

THOR ABLESTAR DEB

Track THOR ABLESTAR DEB now!
10-day predictions


NORAD ID: 5876
Int'l Code: 1961-015KF
Perigee: 912.5 km
Apogee: 2,042.5 km
Inclination: 65.7 °
Period: 115.3 minutes
Semi major axis: 7848 km
RCS: 0.0752 m2 (small)
Launch date: June 29, 1961
Source: United States (US)
Launch site: AIR FORCE EASTERN TEST RANGE (AFETR)

Note: This is SATELLITE DEBRIS
Your satellite tracking list
Your tracking list is empty




NASA's NSSDC Master Catalog

Two Line Element Set (TLE):
1 05876U 61015KF  24256.44691949  .00000956  00000-0  26442-2 0  9994
2 05876  65.6712 153.4819 0719826 149.2319 215.3014 12.48599359 84843
Source of the keplerian elements: AFSPC